LOT31GD EBBR-EPKK

Flight info

Callsign LOT31GD
Flight time 1h 37m
Altitude 37000
Route SOPOK Y863 OGLOR DCT EMGOD DCT BOMBI DCT LOHRE DCT KOMIB L984 LONLI DCT ABERU L984 OKG DCT BALTU DCT OKL DCT BEKVI DCT OMIFU DCT SOPAV DCT PADKA
Aircraft B38M/M-SDE1FGHILORVWXY/HB1

Departure

Time 2026-05-06 17:19
Airport Brussels Airport (EBBR)

Arrival

Time 2026-05-06 18:56
Airport Kraków John Paul II International Airport (EPKK)
Time Latitude Longitude Altitude Speed Heading
2026-05-06 16:54 50.90240 4.48467 123 ft 0 kts 335°
2026-05-06 17:07 50.90227 4.48476 120 ft 4 kts 335°
2026-05-06 17:08 50.90203 4.48494 121 ft 4 kts 335°
2026-05-06 17:08 50.90181 4.48506 121 ft 4 kts
2026-05-06 17:08 50.90162 4.48490 123 ft 4 kts 58°
2026-05-06 17:08 50.90155 4.48466 125 ft 1 kts 65°
2026-05-06 17:09 50.90154 4.48463 124 ft 0 kts 65°
2026-05-06 17:12 50.90158 4.48479 124 ft 7 kts 65°
2026-05-06 17:12 50.90190 4.48587 125 ft 13 kts 65°
2026-05-06 17:13 50.90231 4.48727 125 ft 15 kts 65°
2026-05-06 17:13 50.90278 4.48887 127 ft 17 kts 64°
2026-05-06 17:13 50.90328 4.49062 122 ft 19 kts 69°
2026-05-06 17:13 50.90382 4.49251 124 ft 19 kts 66°
2026-05-06 17:14 50.90434 4.49436 125 ft 17 kts 66°
2026-05-06 17:14 50.90495 4.49604 122 ft 17 kts 32°
2026-05-06 17:14 50.90611 4.49655 125 ft 18 kts 13°
2026-05-06 17:14 50.90737 4.49704 126 ft 19 kts 14°
2026-05-06 17:15 50.90872 4.49760 126 ft 19 kts 16°
2026-05-06 17:15 50.90953 4.49822 123 ft 12 kts 36°
2026-05-06 17:15 50.91030 4.49905 121 ft 11 kts 21°
2026-05-06 17:15 50.91044 4.49914 122 ft 0 kts 22°
2026-05-06 17:18 50.91047 4.49916 122 ft 2 kts 22°
2026-05-06 17:18 50.91092 4.49941 122 ft 12 kts
2026-05-06 17:18 50.91137 4.49888 121 ft 7 kts 268°
2026-05-06 17:18 50.91097 4.49751 120 ft 26 kts 246°
2026-05-06 17:19 50.90898 4.49029 121 ft 115 kts 244°
2026-05-06 17:19 50.90443 4.47518 189 ft 181 kts 248°
2026-05-06 17:19 50.89892 4.45599 891 ft 199 kts 248°
2026-05-06 17:19 50.89566 4.43465 1894 ft 195 kts 277°
2026-05-06 17:20 50.89961 4.41360 2628 ft 209 kts 304°
2026-05-06 17:20 50.90837 4.39400 3240 ft 229 kts 306°
2026-05-06 17:20 50.91403 4.36893 3847 ft 256 kts 275°
2026-05-06 17:20 50.91103 4.34193 5169 ft 253 kts 250°
2026-05-06 17:21 50.90118 4.31769 5960 ft 272 kts 226°
2026-05-06 17:21 50.88718 4.29670 6875 ft 281 kts 224°
2026-05-06 17:21 50.87288 4.27565 7997 ft 281 kts 223°
2026-05-06 17:21 50.85836 4.25446 8977 ft 288 kts 224°
2026-05-06 17:22 50.84349 4.23300 10003 ft 291 kts 221°
2026-05-06 17:22 50.82567 4.21663 10646 ft 308 kts 197°
2026-05-06 17:22 50.80398 4.21278 11221 ft 323 kts 174°
2026-05-06 17:22 50.78215 4.22260 11861 ft 333 kts 151°
2026-05-06 17:23 50.76354 4.24500 12558 ft 341 kts 130°
2026-05-06 17:23 50.75087 4.27652 13419 ft 342 kts 110°
2026-05-06 17:23 50.74541 4.31309 14179 ft 345 kts 91°
2026-05-06 17:23 50.74572 4.35100 14906 ft 349 kts 89°
2026-05-06 17:24 50.74627 4.38915 15596 ft 354 kts 88°
2026-05-06 17:24 50.74697 4.42811 16341 ft 357 kts 89°
2026-05-06 17:24 50.74636 4.46755 17021 ft 361 kts 101°
2026-05-06 17:24 50.73951 4.50567 17740 ft 364 kts 108°
2026-05-06 17:25 50.73217 4.54425 18380 ft 368 kts 108°
2026-05-06 17:25 50.72466 4.58309 18996 ft 371 kts 108°
2026-05-06 17:25 50.71709 4.62227 19571 ft 375 kts 108°
2026-05-06 17:25 50.70942 4.66176 20158 ft 378 kts 108°
2026-05-06 17:26 50.70164 4.70165 20740 ft 382 kts 108°
2026-05-06 17:26 50.69378 4.74184 21304 ft 385 kts 109°
2026-05-06 17:26 50.68583 4.78244 21870 ft 389 kts 108°
2026-05-06 17:26 50.67781 4.82332 22433 ft 392 kts 108°
2026-05-06 17:27 50.66973 4.86442 23012 ft 395 kts 109°
2026-05-06 17:27 50.66154 4.90592 23525 ft 398 kts 108°
2026-05-06 17:27 50.65328 4.94777 23976 ft 401 kts 109°
2026-05-06 17:27 50.64494 4.98989 24443 ft 404 kts 109°
2026-05-06 17:28 50.63653 5.03224 24875 ft 407 kts 109°
2026-05-06 17:28 50.62804 5.07495 25302 ft 410 kts 109°
2026-05-06 17:28 50.61946 5.11796 25740 ft 413 kts 109°
2026-05-06 17:28 50.61084 5.16112 26169 ft 415 kts 109°
2026-05-06 17:29 50.60214 5.20465 26601 ft 418 kts 110°
2026-05-06 17:29 50.59048 5.24634 26999 ft 416 kts 126°
2026-05-06 17:29 50.57196 5.28089 27408 ft 414 kts 137°
2026-05-06 17:29 50.55173 5.31350 27760 ft 418 kts 137°
2026-05-06 17:30 50.53122 5.34608 28197 ft 420 kts 137°
2026-05-06 17:30 50.51048 5.37857 28610 ft 422 kts 137°
2026-05-06 17:30 50.48957 5.41103 29051 ft 423 kts 137°
2026-05-06 17:30 50.46855 5.44349 29420 ft 425 kts 138°
2026-05-06 17:31 50.44741 5.47608 29813 ft 427 kts 138°
2026-05-06 17:31 50.42614 5.50880 30147 ft 429 kts 138°
2026-05-06 17:31 50.40474 5.54167 30456 ft 432 kts 138°
2026-05-06 17:31 50.38324 5.57467 30746 ft 434 kts 138°
2026-05-06 17:32 50.36158 5.60786 31035 ft 437 kts 138°
2026-05-06 17:32 50.33981 5.64116 31323 ft 439 kts 138°
2026-05-06 17:32 50.31789 5.67465 31608 ft 441 kts 138°
2026-05-06 17:32 50.29586 5.70827 31896 ft 443 kts 138°
2026-05-06 17:33 50.27384 5.74222 32170 ft 446 kts 135°
2026-05-06 17:33 50.25585 5.78195 32482 ft 453 kts 119°
2026-05-06 17:33 50.24493 5.82832 32845 ft 457 kts 108°
2026-05-06 17:33 50.23625 5.87627 33144 ft 459 kts 109°
2026-05-06 17:34 50.22776 5.92427 33497 ft 459 kts 108°
2026-05-06 17:34 50.21954 5.97175 33856 ft 459 kts 108°
2026-05-06 17:34 50.21129 6.01996 34103 ft 461 kts 108°
2026-05-06 17:34 50.20304 6.06831 34348 ft 461 kts 108°
2026-05-06 17:35 50.19478 6.11673 34645 ft 461 kts 108°
2026-05-06 17:35 50.18675 6.16519 34929 ft 463 kts 104°
2026-05-06 17:35 50.18450 6.21543 35230 ft 467 kts 88°
2026-05-06 17:36 50.19010 6.31669 35710 ft 470 kts 87°
2026-05-06 17:36 50.19307 6.36750 35992 ft 470 kts 87°
2026-05-06 17:36 50.19614 6.41825 36265 ft 470 kts 87°
2026-05-06 17:36 50.19924 6.46902 36476 ft 470 kts 87°
2026-05-06 17:37 50.20234 6.51994 36715 ft 471 kts 87°
2026-05-06 17:37 50.20541 6.57080 36932 ft 472 kts 87°
2026-05-06 17:37 50.20892 6.67268 36945 ft 466 kts 95°
2026-05-06 17:38 50.20808 6.77417 36930 ft 468 kts 93°
2026-05-06 17:38 50.20784 6.87567 36942 ft 468 kts 93°
2026-05-06 17:39 50.20758 6.97737 36947 ft 468 kts 93°
2026-05-06 17:39 50.20725 7.07899 36949 ft 469 kts 93°
2026-05-06 17:40 50.20682 7.18092 36942 ft 470 kts 93°
2026-05-06 17:40 50.20639 7.26571 36948 ft 470 kts 93°
2026-05-06 17:41 50.20580 7.36765 36929 ft 470 kts 93°
2026-05-06 17:41 50.20512 7.46973 36946 ft 471 kts 94°
2026-05-06 17:42 50.20435 7.57179 36944 ft 470 kts 94°
2026-05-06 17:42 50.20349 7.67361 36949 ft 470 kts 94°
2026-05-06 17:43 50.20254 7.77572 36941 ft 470 kts 94°
2026-05-06 17:43 50.20151 7.87776 36938 ft 471 kts 94°
2026-05-06 17:44 50.20038 7.98006 36931 ft 471 kts 94°
2026-05-06 17:44 50.19916 8.08221 36940 ft 471 kts 94°
2026-05-06 17:45 50.19785 8.18448 36930 ft 471 kts 94°
2026-05-06 17:45 50.19645 8.28671 36917 ft 471 kts 95°
2026-05-06 17:46 50.19495 8.38905 36936 ft 472 kts 95°
2026-05-06 17:46 50.19337 8.49143 36923 ft 472 kts 95°
2026-05-06 17:47 50.19170 8.59373 36917 ft 472 kts 95°
2026-05-06 17:47 50.18994 8.69613 36919 ft 472 kts 95°
2026-05-06 17:48 50.18809 8.79840 36913 ft 472 kts 95°
2026-05-06 17:48 50.18615 8.90070 36920 ft 472 kts 95°
2026-05-06 17:49 50.18412 9.00300 36917 ft 472 kts 95°
2026-05-06 17:49 50.18200 9.10520 36917 ft 471 kts 95°
2026-05-06 17:50 50.17981 9.20676 36950 ft 471 kts 95°
2026-05-06 17:50 50.17751 9.30890 36912 ft 470 kts 95°
2026-05-06 17:51 50.17513 9.41090 36800 ft 470 kts 96°
2026-05-06 17:51 50.17266 9.51272 36800 ft 470 kts 96°
2026-05-06 17:52 50.17010 9.61481 36781 ft 470 kts 96°
2026-05-06 17:52 50.16745 9.71674 36775 ft 471 kts 96°
2026-05-06 17:53 50.16471 9.81893 36787 ft 472 kts 96°
2026-05-06 17:53 50.16187 9.92099 36779 ft 471 kts 96°
2026-05-06 17:54 50.15897 10.02242 36775 ft 471 kts 96°
2026-05-06 17:54 50.15596 10.12446 36757 ft 471 kts 96°
2026-05-06 17:55 50.15337 10.22677 36771 ft 475 kts 92°
2026-05-06 17:55 50.15475 10.32985 36778 ft 475 kts 93°
2026-05-06 17:56 50.15545 10.43281 36774 ft 475 kts 93°
2026-05-06 17:56 50.15598 10.53584 36775 ft 475 kts 93°
2026-05-06 17:57 50.15642 10.63876 36771 ft 475 kts 94°
2026-05-06 17:57 50.15680 10.74212 36763 ft 479 kts 94°
2026-05-06 17:58 50.15703 10.84585 36773 ft 478 kts 94°
2026-05-06 17:58 50.15719 10.94951 36779 ft 478 kts 94°
2026-05-06 17:59 50.15726 11.05324 36784 ft 478 kts 94°
2026-05-06 17:59 50.15724 11.15709 36780 ft 480 kts 94°
2026-05-06 18:00 50.15712 11.26126 36776 ft 480 kts 95°
2026-05-06 18:00 50.15692 11.36540 36779 ft 480 kts 95°
2026-05-06 18:01 50.15662 11.46956 36766 ft 480 kts 95°
2026-05-06 18:01 50.15622 11.57369 36756 ft 482 kts 95°
2026-05-06 18:02 50.15573 11.67841 36771 ft 483 kts 95°
2026-05-06 18:02 50.15515 11.78303 36770 ft 483 kts 95°
2026-05-06 18:03 50.15447 11.88772 36770 ft 483 kts 95°
2026-05-06 18:03 50.15370 11.99242 36740 ft 483 kts 95°
2026-05-06 18:04 50.15284 12.09695 36763 ft 482 kts 95°
2026-05-06 18:04 50.15188 12.20151 36739 ft 482 kts 95°
2026-05-06 18:05 50.15083 12.30604 36740 ft 482 kts 95°
2026-05-06 18:05 50.14968 12.41048 36744 ft 482 kts 95°
2026-05-06 18:06 50.14845 12.51482 36743 ft 481 kts 96°
2026-05-06 18:06 50.14711 12.61905 36760 ft 481 kts 96°
2026-05-06 18:07 50.14569 12.72319 36771 ft 480 kts 96°
2026-05-06 18:07 50.14418 12.82725 36775 ft 480 kts 96°
2026-05-06 18:08 50.14258 12.93129 36743 ft 480 kts 96°
2026-05-06 18:08 50.14087 13.03559 36778 ft 482 kts 96°
2026-05-06 18:09 50.13907 13.14004 36699 ft 481 kts 96°
2026-05-06 18:09 50.13718 13.24438 36734 ft 482 kts 96°
2026-05-06 18:10 50.13519 13.34884 36737 ft 482 kts 96°
2026-05-06 18:10 50.13311 13.45320 36735 ft 482 kts 96°
2026-05-06 18:11 50.13094 13.55748 36737 ft 481 kts 96°
2026-05-06 18:11 50.12869 13.66113 36742 ft 482 kts 96°
2026-05-06 18:12 50.12631 13.76614 36737 ft 481 kts 96°
2026-05-06 18:12 50.12389 13.86939 36703 ft 481 kts 96°
2026-05-06 18:13 50.12135 13.97351 36736 ft 480 kts 96°
2026-05-06 18:13 50.11872 14.07738 36748 ft 480 kts 96°
2026-05-06 18:14 50.11599 14.18133 36745 ft 480 kts 96°
2026-05-06 18:14 50.11318 14.28514 36747 ft 480 kts 97°
2026-05-06 18:15 50.11028 14.38898 36744 ft 479 kts 97°
2026-05-06 18:15 50.10728 14.49268 36748 ft 479 kts 97°
2026-05-06 18:16 50.10420 14.59627 36746 ft 479 kts 97°
2026-05-06 18:16 50.10102 14.69982 36744 ft 478 kts 97°
2026-05-06 18:17 50.09775 14.80330 36726 ft 479 kts 97°
2026-05-06 18:17 50.09438 14.90733 36752 ft 482 kts 97°
2026-05-06 18:18 50.09090 15.01145 36747 ft 481 kts 97°
2026-05-06 18:18 50.08734 15.11554 36749 ft 481 kts 97°
2026-05-06 18:19 50.08368 15.21953 36747 ft 481 kts 98°
2026-05-06 18:19 50.07993 15.32370 36744 ft 484 kts 98°
2026-05-06 18:20 50.07605 15.42856 36740 ft 485 kts 98°
2026-05-06 18:20 50.07208 15.53334 36769 ft 485 kts 98°
2026-05-06 18:21 50.06802 15.63812 36772 ft 485 kts 98°
2026-05-06 18:21 50.06387 15.74276 36749 ft 485 kts 98°
2026-05-06 18:22 50.05961 15.84769 36772 ft 486 kts 98°
2026-05-06 18:22 50.05526 15.95253 36750 ft 486 kts 98°
2026-05-06 18:23 50.05082 16.05735 36751 ft 485 kts 98°
2026-05-06 18:23 50.04628 16.16207 36756 ft 485 kts 98°
2026-05-06 18:24 50.04243 16.24933 36746 ft 488 kts 98°
2026-05-06 18:24 50.03769 16.35476 36747 ft 489 kts 98°
2026-05-06 18:25 50.03285 16.46023 36757 ft 489 kts 98°
2026-05-06 18:25 50.02792 16.56552 36493 ft 486 kts 98°
2026-05-06 18:26 50.02544 16.61766 36111 ft 481 kts 99°
2026-05-06 18:26 50.02296 16.66954 35404 ft 481 kts 99°
2026-05-06 18:26 50.02044 16.72134 34815 ft 480 kts 99°
2026-05-06 18:26 50.01793 16.77297 34386 ft 475 kts 99°
2026-05-06 18:27 50.01544 16.82353 34282 ft 462 kts 99°
2026-05-06 18:27 50.01299 16.87278 34168 ft 457 kts 99°
2026-05-06 18:27 50.01048 16.92266 33660 ft 466 kts 99°
2026-05-06 18:27 50.00794 16.97300 32984 ft 466 kts 99°
2026-05-06 18:28 50.00539 17.02318 32343 ft 467 kts 99°
2026-05-06 18:28 50.00279 17.07350 31715 ft 467 kts 99°
2026-05-06 18:28 50.00018 17.12373 31079 ft 467 kts 98°
2026-05-06 18:28 49.99756 17.17391 30537 ft 465 kts 98°
2026-05-06 18:29 49.99495 17.22337 30290 ft 450 kts 99°
2026-05-06 18:29 49.99244 17.27083 30170 ft 430 kts 99°
2026-05-06 18:29 49.98999 17.31638 30081 ft 418 kts 99°
2026-05-06 18:29 49.98758 17.36097 29988 ft 415 kts 99°
2026-05-06 18:30 49.98511 17.40625 29879 ft 426 kts 99°
2026-05-06 18:30 49.98258 17.45248 29741 ft 433 kts 99°
2026-05-06 18:30 49.98000 17.49922 29613 ft 434 kts 99°
2026-05-06 18:30 49.97740 17.54596 29481 ft 434 kts 99°
2026-05-06 18:31 49.97482 17.59202 29337 ft 432 kts 99°
2026-05-06 18:31 49.97220 17.63840 29129 ft 430 kts 99°
2026-05-06 18:31 49.96955 17.68508 28642 ft 428 kts 99°
2026-05-06 18:31 49.96692 17.73109 28118 ft 426 kts 99°
2026-05-06 18:32 49.96432 17.77616 27671 ft 424 kts 99°
2026-05-06 18:32 49.96169 17.82153 27201 ft 421 kts 99°
2026-05-06 18:32 49.95906 17.86664 26757 ft 419 kts 99°
2026-05-06 18:32 49.95645 17.91119 26695 ft 410 kts 99°
2026-05-06 18:33 49.95389 17.95529 26697 ft 411 kts 99°
2026-05-06 18:33 49.95132 17.99948 26674 ft 410 kts 99°
2026-05-06 18:33 49.94878 18.04363 26679 ft 410 kts 99°
2026-05-06 18:33 49.94622 18.08771 26679 ft 410 kts 99°
2026-05-06 18:34 49.94364 18.13179 26682 ft 410 kts 99°
2026-05-06 18:34 49.94107 18.17585 26581 ft 408 kts 99°
2026-05-06 18:34 49.93853 18.21954 25819 ft 406 kts 99°
2026-05-06 18:34 49.93598 18.26316 25065 ft 405 kts 99°
2026-05-06 18:35 49.93344 18.30653 24404 ft 402 kts 99°
2026-05-06 18:35 49.93095 18.34927 23968 ft 392 kts 99°
2026-05-06 18:35 49.92859 18.39072 23634 ft 381 kts 99°
2026-05-06 18:35 49.92629 18.43158 23262 ft 380 kts 99°
2026-05-06 18:36 49.92398 18.47232 22804 ft 378 kts 99°
2026-05-06 18:36 49.92147 18.51283 22425 ft 375 kts 100°
2026-05-06 18:36 49.91895 18.55295 22078 ft 372 kts 100°
2026-05-06 18:36 49.91645 18.59267 21717 ft 369 kts 100°
2026-05-06 18:37 49.91395 18.63220 21347 ft 367 kts 100°
2026-05-06 18:37 49.91147 18.67141 20990 ft 364 kts 100°
2026-05-06 18:37 49.90901 18.71039 20631 ft 362 kts 100°
2026-05-06 18:37 49.90655 18.74922 20269 ft 360 kts 100°
2026-05-06 18:38 49.90411 18.78776 19911 ft 358 kts 100°
2026-05-06 18:38 49.90171 18.82557 19559 ft 356 kts 100°
2026-05-06 18:38 49.89925 18.86431 19201 ft 355 kts 100°
2026-05-06 18:38 49.89685 18.90177 18864 ft 353 kts 100°
2026-05-06 18:39 49.89442 18.94001 18507 ft 352 kts 100°
2026-05-06 18:39 49.89201 18.97774 18146 ft 351 kts 100°
2026-05-06 18:39 49.88959 19.01535 17749 ft 349 kts 100°
2026-05-06 18:40 49.88478 19.08990 17024 ft 345 kts 100°
2026-05-06 18:40 49.88239 19.12670 16675 ft 342 kts 100°
2026-05-06 18:40 49.88006 19.16273 16340 ft 339 kts 100°
2026-05-06 18:40 49.87771 19.19897 16004 ft 336 kts 100°
2026-05-06 18:41 49.87539 19.23483 15702 ft 333 kts 100°
2026-05-06 18:41 49.87311 19.27031 15381 ft 330 kts 100°
2026-05-06 18:41 49.87199 19.30601 14927 ft 336 kts 88°
2026-05-06 18:41 49.87878 19.34098 14434 ft 346 kts 64°
2026-05-06 18:42 49.89065 19.37332 14099 ft 342 kts 67°
2026-05-06 18:42 49.90075 19.40648 13796 ft 339 kts 67°
2026-05-06 18:42 49.91087 19.43937 13466 ft 336 kts 66°
2026-05-06 18:42 49.92097 19.47190 13127 ft 334 kts 66°
2026-05-06 18:43 49.93106 19.50426 12779 ft 332 kts 66°
2026-05-06 18:43 49.94108 19.53633 12439 ft 329 kts 66°
2026-05-06 18:43 49.95103 19.56819 12117 ft 327 kts 66°
2026-05-06 18:43 49.96093 19.59991 11790 ft 325 kts 67°
2026-05-06 18:44 49.96816 19.63266 11424 ft 319 kts 82°
2026-05-06 18:44 49.97253 19.66633 11104 ft 317 kts 82°
2026-05-06 18:44 49.97700 19.69999 10651 ft 320 kts 82°
2026-05-06 18:44 49.98155 19.73400 10192 ft 323 kts 81°
2026-05-06 18:45 49.98615 19.76791 9941 ft 318 kts 82°
2026-05-06 18:45 49.99067 19.80133 9729 ft 312 kts 82°
2026-05-06 18:45 49.99506 19.83386 9532 ft 305 kts 82°
2026-05-06 18:45 49.99939 19.86591 8961 ft 303 kts 82°
2026-05-06 18:46 50.00367 19.89745 8423 ft 301 kts 82°
2026-05-06 18:46 50.00794 19.92909 7861 ft 300 kts 82°
2026-05-06 18:46 50.01221 19.96071 7364 ft 297 kts 82°
2026-05-06 18:46 50.01643 19.99202 6830 ft 295 kts 82°
2026-05-06 18:47 50.02062 20.02286 6404 ft 285 kts 82°
2026-05-06 18:47 50.02461 20.05227 5943 ft 273 kts 82°
2026-05-06 18:47 50.02843 20.08061 5519 ft 262 kts 83°
2026-05-06 18:47 50.03211 20.10781 5147 ft 251 kts 83°
2026-05-06 18:48 50.03564 20.13385 4783 ft 242 kts 83°
2026-05-06 18:48 50.03909 20.15937 4303 ft 239 kts 82°
2026-05-06 18:48 50.04242 20.18400 4057 ft 225 kts 82°
2026-05-06 18:48 50.04646 20.20643 3940 ft 208 kts 64°
2026-05-06 18:49 50.05566 20.22256 3949 ft 199 kts 34°
2026-05-06 18:49 50.06831 20.23088 4002 ft 198 kts
2026-05-06 18:49 50.08162 20.22956 3983 ft 189 kts 332°
2026-05-06 18:49 50.09174 20.21791 4013 ft 178 kts 300°
2026-05-06 18:50 50.09689 20.20104 4051 ft 172 kts 280°
2026-05-06 18:50 50.10037 20.18313 4056 ft 173 kts 281°
2026-05-06 18:50 50.10408 20.16493 4055 ft 180 kts 282°
2026-05-06 18:50 50.10807 20.14608 4048 ft 186 kts 282°
2026-05-06 18:51 50.11222 20.12691 4032 ft 187 kts 283°
2026-05-06 18:51 50.11615 20.10901 4012 ft 186 kts 283°
2026-05-06 18:51 50.11827 20.09585 3989 ft 183 kts 270°
2026-05-06 18:51 50.11784 20.07636 4002 ft 179 kts 257°
2026-05-06 18:52 50.11556 20.05749 3929 ft 181 kts 253°
2026-05-06 18:52 50.11295 20.03841 3714 ft 180 kts 253°
2026-05-06 18:52 50.11031 20.01937 3503 ft 180 kts 253°
2026-05-06 18:52 50.10767 20.00036 3284 ft 177 kts 253°
2026-05-06 18:53 50.10525 19.98278 3129 ft 154 kts 253°
2026-05-06 18:53 50.10310 19.96729 2935 ft 143 kts 252°
2026-05-06 18:53 50.10099 19.95220 2740 ft 143 kts 253°
2026-05-06 18:53 50.09874 19.93706 2535 ft 144 kts 251°
2026-05-06 18:54 50.09633 19.92194 2372 ft 143 kts 253°
2026-05-06 18:54 50.09426 19.90665 2213 ft 145 kts 255°
2026-05-06 18:54 50.09236 19.89113 1975 ft 147 kts 257°
2026-05-06 18:54 50.09023 19.87559 1787 ft 147 kts 255°
2026-05-06 18:55 50.08784 19.86008 1618 ft 148 kts 257°
2026-05-06 18:55 50.08606 19.84442 1396 ft 144 kts 257°
2026-05-06 18:55 50.08366 19.82951 1197 ft 140 kts 259°
2026-05-06 18:55 50.08176 19.81475 1013 ft 138 kts 258°
2026-05-06 18:56 50.07981 19.80059 821 ft 127 kts 260°
2026-05-06 18:56 50.07824 19.78876 797 ft 93 kts 258°
2026-05-06 18:56 50.07726 19.78132 796 ft 45 kts 257°
2026-05-06 18:56 50.07683 19.77830 796 ft 16 kts 258°
2026-05-06 18:57 50.07643 19.77533 799 ft 40 kts 258°
2026-05-06 18:57 50.07581 19.77058 803 ft 44 kts 259°
2026-05-06 18:57 50.07441 19.76858 802 ft 25 kts 168°
2026-05-06 18:57 50.07349 19.76892 801 ft 8 kts 166°
2026-05-06 18:58 50.07340 19.76895 801 ft 2 kts 166°
2026-05-06 18:58 50.07316 19.76906 801 ft 4 kts 152°
2026-05-06 18:58 50.07307 19.76990 801 ft 15 kts 83°
2026-05-06 18:58 50.07341 19.77218 800 ft 27 kts 78°
2026-05-06 18:59 50.07384 19.77524 799 ft 30 kts 77°
2026-05-06 18:59 50.07428 19.77833 799 ft 27 kts 77°
2026-05-06 18:59 50.07454 19.78021 798 ft 18 kts 79°
2026-05-06 18:59 50.07481 19.78231 797 ft 21 kts 77°
2026-05-06 19:00 50.07516 19.78467 797 ft 23 kts 78°
2026-05-06 19:00 50.07550 19.78727 796 ft 26 kts 77°
2026-05-06 19:00 50.07585 19.78972 795 ft 11 kts 79°
2026-05-06 19:00 50.07596 19.79058 795 ft 13 kts 78°
2026-05-06 19:01 50.07625 19.79270 794 ft 17 kts 78°
2026-05-06 19:01 50.07645 19.79411 794 ft 14 kts 78°
2026-05-06 19:01 50.07665 19.79569 793 ft 16 kts 85°
2026-05-06 19:01 50.07688 19.79733 793 ft 16 kts 71°
2026-05-06 19:02 50.07716 19.79911 792 ft 13 kts 81°
2026-05-06 19:02 50.07678 19.79988 792 ft 7 kts 179°
2026-05-06 19:02 50.07653 19.79967 792 ft 6 kts 214°
2026-05-06 19:02 50.07576 19.79915 792 ft 15 kts 192°
2026-05-06 19:03 50.07540 19.79916 792 ft 2 kts 165°
2026-05-06 19:03 50.07519 19.79925 792 ft 4 kts 165°
2026-05-06 19:03 50.07481 19.79940 792 ft 7 kts 166°
2026-05-06 19:03 50.07426 19.79957 792 ft 9 kts 168°
2026-05-06 19:04 50.07361 19.79995 792 ft 9 kts 158°
2026-05-06 19:04 50.07338 19.80005 792 ft 2 kts 165°
2026-05-06 19:04 50.07326 19.80008 792 ft 1 kts 173°
2026-05-06 19:04 50.07322 19.80009 792 ft 0 kts 171°
2026-05-06 19:05 50.07318 19.80010 792 ft 0 kts 169°
2026-05-06 19:08 50.07302 19.80028 792 ft 0 kts 156°